Flag for Poland

Past Weather in Szczecin, Poland — Yesterday and Last 2 Weeks

Now
63 °F

Passing clouds.


Feels Like: 63 °F
Forecast: 68 / 49 °F
Wind: 10 mph from West

Location: Szczecin Airport

Current Time: Jul 11, 2020 at 2:09:28 pm

Latest Report: Jul 11, 2020 at 1:30 pm


Visibility: N/A

Pressure: 30.15 "Hg

Humidity: 52%

Dew Point: 45 °F

Location of SzczecinLocation

Past Weather in Szczecin — Graph

°F

Szczecin Temperature Yesterday

Maximum temperature yesterday: 73 °F (at 4:00 pm)
Minimum temperature yesterday: 54 °F (at 11:30 pm)
Average temperature yesterday: 62 °F

High & Low Weather Summary for the Past Weeks

 TemperatureHumidityPressure
High86 °F (Jun 26, 4:30 pm)100% (Jun 27, 6:00 am)30.12 "Hg (Jun 27, 6:00 am)
Low46 °F (Jul 9, 4:00 am)31% (Jul 4, 12:00 pm)29.65 "Hg (Jul 10, 4:30 pm)
Average64 °F72%29.85 "Hg
* Reported Jun 26 1:00 pm — Jul 11 1:00 pm, Szczecin. Weather by CustomWeather, © 2020

Note: Actual official high and low records may vary slightly from our data, if they occured in-between our weather recording intervals... More about our weather records

Szczecin Weather History for the Previous 24 Hours

Scroll right to see more
 ConditionsComfort  
Time TempWeatherWind HumidityBarometerVisibility
1:00 pm
Sat, Jul 11
64 °FPassing clouds.10 mph49%30.12 "HgN/A
12:30 pm63 °FPassing clouds.12 mph52%30.12 "HgN/A
12:00 pm61 °FScattered clouds.10 mph59%30.12 "HgN/A
11:30 am61 °FScattered clouds.13 mph59%30.12 "HgN/A
11:00 am61 °FPartly sunny.12 mph59%30.12 "HgN/A
10:30 am61 °FPartly sunny.13 mph59%30.09 "HgN/A
10:00 am59 °FPartly sunny.14 mph63%30.09 "HgN/A
9:30 am59 °FScattered clouds.13 mph63%30.09 "HgN/A
9:00 am57 °FPassing clouds.12 mph72%30.09 "HgN/A
8:30 am55 °FSunny.9 mph77%30.07 "Hg10 mi
8:00 am54 °FSunny.10 mph82%30.07 "Hg10 mi
7:30 am54 °FSunny.10 mph82%30.07 "Hg10 mi
7:00 am52 °FSunny.9 mph88%30.07 "Hg10 mi
6:30 am52 °FSunny.7 mph88%30.07 "Hg10 mi
6:00 am52 °FPassing clouds.5 mph88%30.07 "HgN/A
5:30 am50 °FPassing clouds.3 mph94%30.04 "HgN/A
5:00 am50 °FPassing clouds.3 mph94%30.04 "HgN/A
4:30 am50 °FPassing clouds.5 mph94%30.01 "HgN/A
4:00 am50 °FPassing clouds.5 mph94%30.01 "HgN/A
3:30 am50 °FClear.7 mph94%30.01 "Hg10 mi
3:00 am52 °FPassing clouds.7 mph88%30.01 "HgN/A
2:30 am52 °FPassing clouds.5 mph88%30.01 "HgN/A
2:00 am52 °FClear.7 mph88%29.98 "Hg10 mi
1:30 am52 °FPassing clouds.7 mph88%29.98 "HgN/A
1:00 am52 °FPassing clouds.5 mph88%29.98 "HgN/A
12:30 am52 °FPassing clouds.6 mph88%29.98 "HgN/A
12:00 am54 °FClear.10 mph88%29.95 "Hg10 mi
11:30 pm
Fri, Jul 10
54 °FPassing clouds.12 mph88%29.95 "HgN/A
11:00 pm55 °FPassing clouds.12 mph82%29.92 "HgN/A
10:30 pm55 °FPassing clouds.12 mph82%29.89 "HgN/A
10:00 pm57 °FPassing clouds.15 mph77%29.89 "HgN/A
9:30 pm57 °FMostly cloudy.16 mph77%29.89 "HgN/A
9:00 pm57 °FBroken clouds.16 mph82%29.86 "HgN/A
8:30 pm57 °FPartly sunny.17 mph88%29.83 "HgN/A
8:00 pm57 °FBroken clouds.16 mph88%29.83 "HgN/A
7:30 pm59 °FSprinkles. Partly sunny.22 mph88%29.80 "HgN/A
7:00 pm63 °FPartly sunny.20 mph83%29.77 "HgN/A
6:30 pm66 °FSprinkles. Broken clouds.15 mph88%29.74 "HgN/A
6:00 pm70 °FSprinkles. Scattered clouds.15 mph78%29.71 "HgN/A
5:30 pm70 °FSprinkles. Broken clouds.21 mph69%29.68 "HgN/A
5:00 pm73 °FScattered clouds.10 mph69%29.65 "HgN/A
4:30 pm73 °FScattered clouds.8 mph69%29.65 "HgN/A
4:00 pm73 °FBroken clouds.9 mph74%29.68 "HgN/A
3:30 pm72 °FPartly sunny.9 mph73%29.68 "HgN/A
3:00 pm70 °FPartly sunny.8 mph78%29.68 "HgN/A
2:00 pm70 °FScattered clouds.9 mph83%29.71 "HgN/A
Weather by CustomWeather, © 2020

See weather overview